When you browse on this site, cookies collect data to enhance your experience and personalize the content and advertising you see.
Visit our Privacy Policy to learn more. By continuing to use the site, you agree to this use of cookies and data.
  • En España
  • Lista de países
  • Para 7 días
  • Temperatura del agua
  • Mapa Satelital
  • El tiempo en el mapa
  • Informadores
  • user-avatar
    Iniciar sesión

    Tiempo cada hora Atlanta

    Hoy, 21 Abril, Domingo

    Tiempo Temperatura Precipitaciones Viento Presión Humedad
    00:00 +9°C° 0 mm 2 mps 733 mmHg 76%
    01:00 +9°C° 0 mm 2 mps 734 mmHg 74%
    02:00 +9°C° 0 mm 2 mps 734 mmHg 73%
    03:00 +8°C° 0 mm 2 mps 734 mmHg 72%
    04:00 +8°C° 0 mm 2 mps 735 mmHg 70%
    05:00 +8°C° 0 mm 2 mps 735 mmHg 68%
    06:00 +8°C° 0 mm 2 mps 736 mmHg 67%
    07:00 +11°C° 0 mm 3 mps 736 mmHg 56%
    08:00 +13°C° 0 mm 3 mps 736 mmHg 44%
    09:00 +15°C° 0 mm 4 mps 737 mmHg 33%
    10:00 +18°C° 0 mm 4 mps 737 mmHg 29%
    11:00 +20°C° 0 mm 4 mps 737 mmHg 26%
    12:00 +21°C° 0 mm 5 mps 737 mmHg 22%
    13:00 +22°C° 0 mm 4 mps 737 mmHg 23%
    14:00 +22°C° 0 mm 4 mps 737 mmHg 24%
    15:00 +23°C° 0 mm 4 mps 737 mmHg 24%
    16:00 +22°C° 0 mm 4 mps 737 mmHg 28%
    17:00 +20°C° 0 mm 3 mps 737 mmHg 33%
    18:00 +19°C° 0 mm 2 mps 737 mmHg 37%
    19:00 +18°C° 0 mm 2 mps 738 mmHg 41%
    20:00 +17°C° 0 mm 2 mps 738 mmHg 44%
    21:00 +16°C° 0 mm 1 mps 738 mmHg 48%
    22:00 +16°C° 0 mm 1 mps 738 mmHg 50%
    23:00 +15°C° 0 mm 1 mps 738 mmHg 52%

    Mañana, 22 Abril, Lunes

    Tiempo Temperatura Precipitaciones Viento Presión Humedad
    00:00 +15°C° 0 mm 1 mps 738 mmHg 54%
    01:00 +14°C° 0 mm 1 mps 738 mmHg 55%
    02:00 +14°C° 0 mm 1 mps 738 mmHg 56%
    03:00 +13°C° 0 mm 1 mps 738 mmHg 57%
    04:00 +13°C° 0 mm 1 mps 738 mmHg 58%
    05:00 +13°C° 0 mm 1 mps 739 mmHg 58%
    06:00 +13°C° 0 mm 1 mps 739 mmHg 59%
    07:00 +16°C° 0 mm 1 mps 739 mmHg 51%
    08:00 +19°C° 0 mm 2 mps 740 mmHg 43%
    09:00 +21°C° 0 mm 2 mps 740 mmHg 35%
    10:00 +24°C° 0 mm 2 mps 740 mmHg 31%
    11:00 +26°C° 0 mm 1 mps 740 mmHg 28%
    12:00 +28°C° 0 mm 1 mps 739 mmHg 24%
    13:00 +29°C° 0 mm 1 mps 739 mmHg 24%
    14:00 +29°C° 0 mm 1 mps 738 mmHg 24%
    15:00 +30°C° 0 mm 1 mps 738 mmHg 24%
    16:00 +28°C° 0 mm 1 mps 738 mmHg 28%
    17:00 +26°C° 0 mm 1 mps 738 mmHg 33%
    18:00 +25°C° 0 mm 1 mps 738 mmHg 38%
    19:00 +24°C° 0 mm 1 mps 738 mmHg 42%
    20:00 +20°C° 0 mm 0 mps 738 mmHg 45%
    21:00 +19°C° 0 mm 0 mps 738 mmHg 49%
    22:00 +19°C° 0 mm 0 mps 738 mmHg 51%
    23:00 +18°C° 0 mm 0 mps 738 mmHg 54%

    Pasado mañana, 23 Abril, Martes

    Tiempo Temperatura Precipitaciones Viento Presión Humedad
    00:00 +19°C° 0 mm 1 mps 738 mmHg 56%
    01:00 +19°C° 0 mm 1 mps 738 mmHg 58%
    02:00 +19°C° 0 mm 1 mps 738 mmHg 60%
    03:00 +16°C° 0 mm 0 mps 737 mmHg 62%
    04:00 +16°C° 0 mm 0 mps 738 mmHg 62%
    05:00 +16°C° 0 mm 0 mps 738 mmHg 62%
    06:00 +17°C° 0 mm 0 mps 738 mmHg 62%
    07:00 +19°C° 0 mm 0 mps 738 mmHg 55%
    08:00 +24°C° 0 mm 1 mps 739 mmHg 48%
    09:00 +26°C° 0 mm 1 mps 739 mmHg 41%
    10:00 +27°C° 0 mm 1 mps 738 mmHg 37%
    11:00 +29°C° 0 mm 2 mps 738 mmHg 34%
    12:00 +30°C° 0 mm 2 mps 738 mmHg 30%
    13:00 +30°C° 0 mm 3 mps 737 mmHg 30%
    14:00 +30°C° 0 mm 3 mps 737 mmHg 30%
    15:00 +30°C° 0 mm 3 mps 736 mmHg 30%
    16:00 +29°C° 0 mm 3 mps 736 mmHg 34%
    17:00 +28°C° 0 mm 2 mps 736 mmHg 38%
    18:00 +26°C° 0 mm 2 mps 736 mmHg 42%
    19:00 +25°C° 0 mm 2 mps 736 mmHg 47%
    20:00 +24°C° 0 mm 1 mps 736 mmHg 51%
    21:00 +23°C° 0 mm 1 mps 737 mmHg 55%
    22:00 +23°C° 0 mm 1 mps 736 mmHg 57%
    23:00 +22°C° 0 mm 1 mps 736 mmHg 59%

    24 Abril, Miércoles

    Tiempo Temperatura Precipitaciones Viento Presión Humedad
    00:00 +22°C° 0 mm 1 mps 736 mmHg 61%
    01:00 +21°C° 0 mm 1 mps 736 mmHg 63%
    02:00 +21°C° 0 mm 1 mps 736 mmHg 65%
    03:00 +20°C° 0 mm 1 mps 735 mmHg 67%
    04:00 +20°C° 0 mm 1 mps 736 mmHg 67%
    05:00 +20°C° 0 mm 1 mps 736 mmHg 68%
    06:00 +20°C° 0 mm 1 mps 736 mmHg 69%
    07:00 +21°C° 0 mm 2 mps 736 mmHg 60%
    08:00 +24°C° 0 mm 2 mps 736 mmHg 51%
    09:00 +26°C° 0 mm 2 mps 737 mmHg 42%
    10:00 +28°C° 0 mm 3 mps 736 mmHg 38%
    11:00 +29°C° 0 mm 3 mps 736 mmHg 34%
    12:00 +30°C° 0 mm 3 mps 736 mmHg 30%
    13:00 +30°C° 0 mm 3 mps 735 mmHg 30%
    14:00 +31°C° 0 mm 3 mps 735 mmHg 30%
    15:00 +31°C° 0 mm 3 mps 734 mmHg 30%
    16:00 +30°C° 0 mm 2 mps 734 mmHg 35%
    17:00 +28°C° 0 mm 2 mps 734 mmHg 39%
    18:00 +27°C° 0 mm 2 mps 734 mmHg 43%
    19:00 +26°C° 0 mm 2 mps 735 mmHg 46%
    20:00 +25°C° 0 mm 2 mps 735 mmHg 48%
    21:00 +24°C° 0 mm 3 mps 735 mmHg 50%
    22:00 +23°C° 0 mm 2 mps 735 mmHg 52%
    23:00 +21°C° 0 mm 2 mps 735 mmHg 54%

    25 Abril, Jueves

    Tiempo Temperatura Precipitaciones Viento Presión Humedad
    00:00 +20°C° 0 mm 2 mps 734 mmHg 55%
    01:00 +20°C° 0 mm 2 mps 734 mmHg 57%
    02:00 +19°C° 0 mm 2 mps 734 mmHg 58%
    03:00 +19°C° 0 mm 2 mps 734 mmHg 60%
    04:00 +20°C° 0 mm 1 mps 734 mmHg 61%
    05:00 +20°C° 0 mm 1 mps 735 mmHg 62%
    06:00 +20°C° 0 mm 1 mps 735 mmHg 63%
    07:00 +22°C° 0 mm 1 mps 735 mmHg 57%
    08:00 +24°C° 0 mm 1 mps 736 mmHg 51%
    09:00 +26°C° 0 mm 1 mps 736 mmHg 45%
    10:00 +28°C° 0 mm 2 mps 735 mmHg 40%
    11:00 +29°C° 0 mm 3 mps 735 mmHg 34%
    12:00 +30°C° 0 mm 3 mps 735 mmHg 29%
    13:00 +30°C° 0 mm 4 mps 735 mmHg 30%
    14:00 +30°C° 0 mm 4 mps 734 mmHg 32%
    15:00 +29°C° 0 mm 5 mps 734 mmHg 33%
    16:00 +28°C° 0.1 mm 4 mps 734 mmHg 41%
    17:00 +26°C° 0.1 mm 3 mps 734 mmHg 48%
    18:00 +24°C° 0.1 mm 2 mps 734 mmHg 55%
    19:00 +24°C° 0 mm 1 mps 734 mmHg 56%
    20:00 +23°C° 0 mm 1 mps 734 mmHg 56%
    21:00 +21°C° 0 mm 0 mps 734 mmHg 57%
    22:00 +20°C° 0.3 mm 0 mps 734 mmHg 61%
    23:00 +20°C° 0.3 mm 0 mps 734 mmHg 65%

    26 Abril, Viernes

    Tiempo Temperatura Precipitaciones Viento Presión Humedad
    00:00 +19°C° 0.3 mm 0 mps 734 mmHg 69%
    01:00 +19°C° 0.3 mm 0 mps 733 mmHg 70%
    02:00 +19°C° 0.3 mm 0 mps 733 mmHg 71%
    03:00 +19°C° 0.3 mm 0 mps 733 mmHg 73%
    04:00 +19°C° 0.1 mm 0 mps 733 mmHg 73%
    05:00 +20°C° 0.1 mm 1 mps 733 mmHg 74%
    06:00 +20°C° 0.1 mm 1 mps 734 mmHg 75%
    07:00 +21°C° 0.3 mm 1 mps 734 mmHg 73%
    08:00 +22°C° 0.3 mm 1 mps 734 mmHg 71%
    09:00 +23°C° 0.3 mm 1 mps 734 mmHg 70%
    10:00 +23°C° 1.1 mm 1 mps 734 mmHg 68%
    11:00 +24°C° 1.1 mm 1 mps 734 mmHg 66%
    12:00 +25°C° 1.1 mm 1 mps 734 mmHg 64%
    13:00 +25°C° 1.4 mm 1 mps 733 mmHg 61%
    14:00 +26°C° 1.4 mm 1 mps 733 mmHg 58%
    15:00 +26°C° 1.4 mm 1 mps 733 mmHg 55%
    16:00 +26°C° 0 mm 1 mps 733 mmHg 57%
    17:00 +25°C° 0 mm 1 mps 733 mmHg 59%
    18:00 +24°C° 0 mm 1 mps 734 mmHg 61%
    19:00 +23°C° 0.1 mm 1 mps 734 mmHg 65%
    20:00 +23°C° 0.1 mm 1 mps 734 mmHg 69%
    21:00 +22°C° 0.1 mm 1 mps 735 mmHg 73%
    22:00 +21°C° 0 mm 1 mps 735 mmHg 74%
    23:00 +20°C° 0 mm 2 mps 735 mmHg 75%
    Mostrar más